• In Uzbekistan
  • List of Countries
  • For 7 days
  • Water Temperature
  • Satellite Maps
  • Weather Map
  • Weather Widgets
  • user-avatar
    Login

    Hourly Weather Konstantyna

    Today, 25 June, Monday

    Time Temperature Precipitation Wind Pressure Humidity
    00:00 +22°C° 0 mm 1 mps 709 mmHg 74%
    01:00 +21°C° 0 mm 1 mps 709 mmHg 75%
    02:00 +21°C° 0 mm 1 mps 709 mmHg 76%
    03:00 +20°C° 0 mm 1 mps 709 mmHg 77%
    04:00 +21°C° 0 mm 1 mps 709 mmHg 73%
    05:00 +21°C° 0 mm 1 mps 709 mmHg 69%
    06:00 +21°C° 0 mm 1 mps 709 mmHg 65%
    07:00 +23°C° 0 mm 1 mps 710 mmHg 57%
    08:00 +24°C° 0 mm 2 mps 710 mmHg 48%
    09:00 +26°C° 0 mm 2 mps 710 mmHg 40%
    10:00 +27°C° 0 mm 3 mps 711 mmHg 37%
    11:00 +28°C° 0 mm 3 mps 711 mmHg 34%
    12:00 +29°C° 0 mm 4 mps 711 mmHg 31%
    13:00 +29°C° 0 mm 4 mps 711 mmHg 32%
    14:00 +29°C° 0 mm 5 mps 711 mmHg 33%
    15:00 +29°C° 0 mm 5 mps 710 mmHg 33%
    16:00 +28°C° 0 mm 5 mps 710 mmHg 38%
    17:00 +27°C° 0 mm 4 mps 710 mmHg 42%
    18:00 +26°C° 0 mm 4 mps 710 mmHg 46%
    19:00 +24°C° 0 mm 3 mps 711 mmHg 53%
    20:00 +23°C° 0 mm 2 mps 711 mmHg 60%
    21:00 +21°C° 0 mm 2 mps 711 mmHg 67%
    22:00 +21°C° 0 mm 1 mps 711 mmHg 69%
    23:00 +21°C° 0 mm 1 mps 711 mmHg 71%

    Tomorrow, 26 June, Tuesday

    Time Temperature Precipitation Wind Pressure Humidity
    00:00 +20°C° 0 mm 1 mps 710 mmHg 73%
    01:00 +20°C° 0 mm 1 mps 710 mmHg 73%
    02:00 +19°C° 0 mm 1 mps 710 mmHg 72%
    03:00 +17°C° 0 mm 0 mps 710 mmHg 72%
    04:00 +20°C° 0 mm 1 mps 710 mmHg 66%
    05:00 +21°C° 0 mm 1 mps 710 mmHg 61%
    06:00 +21°C° 0 mm 1 mps 710 mmHg 55%
    07:00 +23°C° 0 mm 2 mps 711 mmHg 48%
    08:00 +24°C° 0 mm 2 mps 711 mmHg 42%
    09:00 +26°C° 0 mm 3 mps 711 mmHg 35%
    10:00 +27°C° 0 mm 3 mps 711 mmHg 33%
    11:00 +28°C° 0 mm 4 mps 712 mmHg 32%
    12:00 +29°C° 0 mm 4 mps 712 mmHg 30%
    13:00 +29°C° 0 mm 4 mps 711 mmHg 32%
    14:00 +29°C° 0 mm 5 mps 711 mmHg 33%
    15:00 +29°C° 0 mm 5 mps 711 mmHg 34%
    16:00 +27°C° 0 mm 4 mps 711 mmHg 39%
    17:00 +26°C° 0 mm 4 mps 711 mmHg 43%
    18:00 +25°C° 0 mm 4 mps 711 mmHg 48%
    19:00 +24°C° 0 mm 3 mps 711 mmHg 54%
    20:00 +21°C° 0 mm 2 mps 711 mmHg 60%
    21:00 +21°C° 0 mm 1 mps 711 mmHg 66%
    22:00 +21°C° 0 mm 1 mps 711 mmHg 68%
    23:00 +20°C° 0 mm 1 mps 711 mmHg 71%

    Day after tomorrow, 27 June, Wednesday

    Time Temperature Precipitation Wind Pressure Humidity
    00:00 +20°C° 0 mm 1 mps 711 mmHg 73%
    01:00 +19°C° 0 mm 1 mps 711 mmHg 73%
    02:00 +19°C° 0 mm 1 mps 710 mmHg 73%
    03:00 +19°C° 0 mm 1 mps 710 mmHg 73%
    04:00 +19°C° 0 mm 1 mps 710 mmHg 68%
    05:00 +20°C° 0 mm 1 mps 710 mmHg 62%
    06:00 +21°C° 0 mm 1 mps 711 mmHg 56%
    07:00 +23°C° 0 mm 1 mps 711 mmHg 47%
    08:00 +25°C° 0 mm 1 mps 711 mmHg 37%
    09:00 +27°C° 0 mm 1 mps 711 mmHg 28%
    10:00 +28°C° 0 mm 2 mps 711 mmHg 26%
    11:00 +29°C° 0 mm 2 mps 711 mmHg 24%
    12:00 +30°C° 0 mm 3 mps 711 mmHg 22%
    13:00 +30°C° 0 mm 3 mps 711 mmHg 22%
    14:00 +31°C° 0 mm 3 mps 711 mmHg 23%
    15:00 +32°C° 0 mm 4 mps 711 mmHg 24%
    16:00 +30°C° 0 mm 3 mps 710 mmHg 28%
    17:00 +29°C° 0 mm 3 mps 710 mmHg 33%
    18:00 +28°C° 0 mm 3 mps 710 mmHg 37%
    19:00 +26°C° 0 mm 2 mps 710 mmHg 42%
    20:00 +25°C° 0 mm 2 mps 710 mmHg 47%
    21:00 +23°C° 0 mm 1 mps 710 mmHg 53%
    22:00 +23°C° 0 mm 1 mps 710 mmHg 53%
    23:00 +23°C° 0 mm 1 mps 709 mmHg 54%

    28 June, Thursday

    Time Temperature Precipitation Wind Pressure Humidity
    00:00 +22°C° 0 mm 1 mps 709 mmHg 54%
    01:00 +22°C° 0 mm 1 mps 709 mmHg 54%
    02:00 +22°C° 0 mm 1 mps 709 mmHg 54%
    03:00 +22°C° 0 mm 1 mps 708 mmHg 54%
    04:00 +21°C° 0 mm 0 mps 708 mmHg 51%
    05:00 +22°C° 0 mm 0 mps 709 mmHg 47%
    06:00 +23°C° 0 mm 0 mps 709 mmHg 43%
    07:00 +27°C° 0 mm 1 mps 709 mmHg 38%
    08:00 +28°C° 0 mm 1 mps 709 mmHg 33%
    09:00 +30°C° 0 mm 2 mps 709 mmHg 27%
    10:00 +31°C° 0 mm 2 mps 709 mmHg 26%
    11:00 +34°C° 0 mm 3 mps 709 mmHg 24%
    12:00 +35°C° 0 mm 3 mps 709 mmHg 23%
    13:00 +35°C° 0 mm 4 mps 709 mmHg 23%
    14:00 +36°C° 0 mm 4 mps 709 mmHg 23%
    15:00 +36°C° 0 mm 4 mps 709 mmHg 23%
    16:00 +35°C° 0 mm 4 mps 708 mmHg 26%
    17:00 +34°C° 0 mm 4 mps 708 mmHg 29%
    18:00 +31°C° 0 mm 3 mps 708 mmHg 32%
    19:00 +30°C° 0.1 mm 3 mps 708 mmHg 36%
    20:00 +28°C° 0.1 mm 2 mps 708 mmHg 39%
    21:00 +27°C° 0.1 mm 2 mps 708 mmHg 43%
    22:00 +27°C° 0 mm 2 mps 708 mmHg 43%
    23:00 +26°C° 0 mm 2 mps 707 mmHg 43%

    29 June, Friday

    Time Temperature Precipitation Wind Pressure Humidity
    00:00 +26°C° 0 mm 2 mps 707 mmHg 42%
    01:00 +26°C° 0 mm 2 mps 707 mmHg 42%
    02:00 +26°C° 0 mm 2 mps 706 mmHg 42%
    03:00 +26°C° 0 mm 2 mps 706 mmHg 41%
    04:00 +26°C° 0 mm 2 mps 706 mmHg 39%
    05:00 +27°C° 0 mm 2 mps 706 mmHg 37%
    06:00 +28°C° 0 mm 2 mps 706 mmHg 35%
    07:00 +31°C° 0 mm 3 mps 707 mmHg 29%
    08:00 +35°C° 0 mm 4 mps 707 mmHg 23%
    09:00 +39°C° 0 mm 6 mps 708 mmHg 17%
    10:00 +41°C° 0 mm 7 mps 708 mmHg 15%
    11:00 +43°C° 0 mm 8 mps 707 mmHg 14%
    12:00 +44°C° 0 mm 9 mps 707 mmHg 12%
    13:00 +44°C° 0 mm 9 mps 707 mmHg 12%
    14:00 +44°C° 0 mm 8 mps 707 mmHg 12%
    15:00 +44°C° 0 mm 7 mps 707 mmHg 13%
    16:00 +42°C° 0 mm 6 mps 707 mmHg 15%
    17:00 +41°C° 0 mm 5 mps 707 mmHg 18%
    18:00 +40°C° 0 mm 4 mps 707 mmHg 20%
    19:00 +36°C° 0 mm 4 mps 707 mmHg 25%
    20:00 +34°C° 0 mm 3 mps 707 mmHg 29%
    21:00 +31°C° 0 mm 3 mps 707 mmHg 33%
    22:00 +31°C° 0 mm 3 mps 707 mmHg 32%
    23:00 +31°C° 0 mm 2 mps 707 mmHg 32%

    30 June, Saturday

    Time Temperature Precipitation Wind Pressure Humidity
    00:00 +30°C° 0 mm 2 mps 706 mmHg 31%
    01:00 +30°C° 0 mm 2 mps 706 mmHg 29%
    02:00 +30°C° 0 mm 2 mps 706 mmHg 27%
    03:00 +30°C° 0 mm 2 mps 706 mmHg 25%
    04:00 +31°C° 0 mm 2 mps 707 mmHg 23%
    05:00 +31°C° 0 mm 3 mps 707 mmHg 22%
    06:00 +33°C° 0 mm 3 mps 707 mmHg 21%
    07:00 +36°C° 0 mm 4 mps 708 mmHg 17%
    08:00 +40°C° 0 mm 6 mps 708 mmHg 14%
    09:00 +44°C° 0 mm 8 mps 709 mmHg 11%
    10:00 +45°C° 0 mm 7 mps 709 mmHg 11%
    11:00 +46°C° 0 mm 7 mps 709 mmHg 11%
    12:00 +46°C° 0 mm 7 mps 709 mmHg 11%
    13:00 +46°C° 0 mm 6 mps 709 mmHg 11%
    14:00 +46°C° 0 mm 5 mps 709 mmHg 12%
    15:00 +45°C° 0 mm 5 mps 708 mmHg 13%
    16:00 +43°C° 0 mm 4 mps 708 mmHg 18%
    17:00 +41°C° 0 mm 4 mps 708 mmHg 23%
    18:00 +38°C° 0 mm 3 mps 708 mmHg 27%
    19:00 +36°C° 0 mm 2 mps 708 mmHg 35%
    20:00 +34°C° 0 mm 2 mps 709 mmHg 43%
    21:00 +30°C° 0 mm 1 mps 709 mmHg 50%
    22:00 +30°C° 0 mm 1 mps 709 mmHg 51%
    23:00 +29°C° 0 mm 1 mps 709 mmHg 51%
    Show more